CAPE
0 0 0 0 0 0 0 0 0 0 0 0 1 7 0 17 4 11 110 314 397 534 639 737 736 1043 1793 2112 2170 2287 2125 2483 2838 2393 1691 1358 933 98 351 1029 1252 1462 1306 525
0 0 0 0 0 0 0 0 0 0 0 0 0 0 0 0 0 0 48 507 468 547 611 910 768 927 1979 2257 2338 2537 2704 3454 2857 2281 1892 1372 1054 625 908 988 1264 1436 1268 765
0 0 0 0 0 0 0 0 0 0 0 0 0 0 0 0 0 0 0 530 645 571 685 819 855 1005 2064 2244 2939 2507 2881 3133 3114 2356 1944 1578 1061 427 981 1236 868 1283 1332 918
0 0 0 0 0 0 0 0 0 0 0 0 0 0 0 0 0 0 1 136 780 769 772 839 803 1065 1781 2799 2855 2476 3318 3874 3176 2980 2785 2304 1048 431 1043 1236 917 963 1438 1006
0 0 0 0 0 0 0 0 0 0 0 0 0 0 0 0 0 12 2 124 688 945 996 928 920 1059 1654 2717 3369 3246 4051 4084 3466 3209 2798 1214 925 1519 1230 1330 1122 1137 1244 1184
0 0 0 0 0 0 0 0 0 0 0 0 0 0 0 0 7 11 45 18 146 252 755 1195 1134 1168 2418 2961 3536 3728 3602 2726 2460 2803 2617 2311 2111 1917 1462 1188 1138 982 886 1056
0 0 0 0 0 0 0 0 0 0 0 0 0 0 0 0 12 4 34 19 60 0 967 1521 1633 1532 2780 3516 3533 3315 2937 2221 1270 1530 1318 1646 1747 1443 1409 1448 885 967 689 555
0 0 0 0 0 0 0 0 0 0 0 0 0 0 0 0 33 40 9 0 30 261 1541 1906 1925 3238 3386 3264 3090 2701 2429 1945 957 1205 1451 1363 1183 1896 2169 1716 1305 1050 669 476
0 0 0 0 0 0 0 0 0 0 0 0 0 0 14 10 15 0 95 270 543 935 2198 2224 3300 3278 3195 3086 2848 2595 2402 1859 1657 1824 1911 2024 2416 2181 1957 1902 1295 862 704 351
0 0 3 0 0 0 0 0 0 0 0 0 0 10 165 573 243 398 1175 1217 1765 3107 3003 3420 3258 3036 3026 2956 2747 2533 2260 1922 1871 1927 1896 1985 1930 1827 2022 1651 1327 737 421 249
26 1 0 0 1 0 0 0 0 0 0 0 0 142 671 1424 1448 1347 1510 1652 1708 3366 3574 3537 3502 3334 3212 2998 2566 1763 1571 2128 1959 1763 2083 2206 2101 2051 1508 1464 996 548 364 133
156 32 0 0 0 0 3 0 0 0 0 0 0 38 109 492 1621 1579 1717 2087 1858 2513 3150 3465 3527 3358 3048 2818 2583 1915 1635 1840 2027 949 2104 2319 2368 1924 1289 833 866 673 424 221
106 164 0 0 1 0 0 0 0 0 0 0 0 47 856 1117 1613 1462 1745 2313 2517 2625 2686 2760 2654 2671 2608 2515 2351 2191 2146 2053 1866 2470 2385 2416 2137 1670 1541 1263 1169 809 578 437
355 257 319 44 0 0 3 0 0 0 7 0 2 638 1355 836 1091 855 1562 2408 3023 2653 2882 2797 2665 2362 2632 2633 2591 2565 2328 2088 1456 2532 2401 2178 2064 1735 1502 1231 1199 1200 800 671
171 273 183 11 2 5 0 0 0 0 1 64 540 923 1062 658 229 43 250 1890 3035 2814 2587 2372 2449 2744 2674 3013 3030 2784 2553 2510 2529 2649 2339 2201 1706 1731 1565 1354 1291 829 637 453
38 77 86 616 28 16 15 0 4 2 0 0 268 834 627 317 592 936 1666 1765 2846 2684 2752 2388 2427 2295 2768 3171 3092 2800 2737 2277 2830 2625 2326 2167 1667 1598 1456 1207 1021 750 622 468
0 15 67 538 545 715 184 732 391 342 497 323 534 731 563 1015 2124 1727 1619 2234 2524 2712 2818 2576 2470 2145 3019 2884 3300 3132 2998 3031 2964 2655 2315 2068 1666 1552 1511 1113 934 742 669 488
142 0 19 120 437 435 429 497 411 772 580 996 1664 1418 1986 2343 2128 2137 2227 2335 2255 2286 2710 2722 3003 3423 3378 2806 2397 3320 3079 3007 2777 2826 2681 2387 1958 1681 1635 1240 1046 888 737 574
2 0 4 11 28 159 246 213 181 218 195 505 778 1077 1845 2213 1963 2009 2297 2369 2478 2512 2394 2610 2905 2802 2951 2743 2735 2688 3007 2921 2846 2758 2044 2092 1522 1592 1876 1436 1189 1061 862 849
123 61 68 13 108 117 461 205 207 470 330 28 15 128 533 1185 1107 1570 1731 1934 2232 2118 2466 2781 2455 1981 2099 2251 2461 2485 2361 2167 1971 2009 1696 1375 755 117 389 444 1427 1325 1119 1077
593 396 189 40 82 311 341 270 92 19 306 196 39 118 641 130 722 750 723 1168 1370 1549 1715 2313 2181 2325 1478 1383 1538 1755 2035 2233 2213 1788 579 253 116 20 44 16 473 1398 1199 1145
237 343 213 360 428 215 1019 549 930 213 421 96 288 689 449 250 590 605 541 758 899 1043 1055 1086 1899 2262 1613 1334 1248 1097 991 609 610 621 493 457 50 117 0 0 240 1284 1309 1314
131 117 4 10 110 313 667 548 852 691 678 605 717 798 557 618 742 708 682 741 959 900 876 1018 1345 1348 1290 1361 1183 1067 979 872 740 731 531 313 56 74 114 277 1039 1432 1560 1351
187 17 16 66 29 0 2 284 462 408 373 458 477 440 590 604 756 709 805 831 626 616 494 652 554 647 396 407 626 591 523 614 825 776 751 567 276 0 575 1304 1695 1628 1636 1534
13 7 2 1 53 261 212 201 196 176 188 203 178 209 263 220 500 542 642 570 430 208 181 77 65 85 67 36 7 8 18 149 246 296 634 900 995 620 800 618 1126 1168 1402 1276
4 0 4 19 16 138 175 213 160 72 201 98 86 112 226 297 315 391 416 349 236 54 22 0 0 0 3 0 0 0 0 0 0 27 127 512 468 901 875 767 652 593 568 727
CIN
-0 -0 -0 -0 -0 -0 -0 -0 -0 -0 -0 -0 -6 -1 -0 -34 -24 -32 -85 -80 -44 -163 -185 -245 -250 -222 -199 -153 -108 -113 -110 -94 -48 -41 -32 -52 -59 -305 -231 -108 -74 -41 -20 -38
-0 -0 -0 -0 -0 -0 -0 -0 -0 -0 -0 -0 -0 -0 -0 -0 -0 -0 -84 -110 -80 -51 -125 -209 -245 -256 -228 -183 -124 -119 -116 -42 -37 -22 -20 -49 -52 -68 -89 -49 -33 -51 -33 -38
-0 -0 -0 -0 -0 -0 -0 -0 -0 -0 -0 -0 -0 -0 -0 -0 -0 -0 -1 -101 -119 -61 -48 -61 -161 -273 -211 -200 -137 -134 -119 -80 -36 -23 -25 -18 -15 -98 -45 -17 -24 -50 -38 -34
-0 -0 -0 -0 -0 -0 -0 -0 -0 -0 -0 -0 -0 -0 -0 -0 -0 -0 -2 -82 -100 -90 -29 -39 -53 -244 -226 -197 -146 -140 -142 -58 -46 -23 -10 -5 -23 -123 -75 -12 -55 -52 -37 -31
-0 -0 -0 -0 -0 -0 -0 -0 -0 -0 -0 -0 -0 -0 -0 -0 -0 -20 -17 -67 -54 -56 -102 -129 -214 -230 -243 -187 -139 -130 -67 -40 -40 -13 -9 -89 -95 -16 -5 -46 -31 -26 -27 -37
-0 -0 -0 -0 -0 -0 -0 -0 -0 -0 -0 -0 -0 -0 -0 -0 -39 -29 -69 -106 -49 -23 -40 -112 -177 -229 -202 -158 -122 -81 -77 -75 -69 -51 -17 -10 -6 -4 -11 -3 -26 -13 -20 -17
-0 -0 -0 -0 -0 -0 -0 -0 -0 -0 -0 -0 -0 -0 -0 -0 -57 -51 -45 -28 -62 -10 -53 -104 -199 -205 -165 -159 -140 -104 -74 -84 -83 -111 -104 -55 -16 -17 -13 -26 -34 -38 -37 -33
-0 -0 -0 -0 -0 -0 -0 -0 -0 -0 -0 -0 -0 -0 -0 -0 -67 -65 -49 -0 -95 -65 -77 -122 -187 -240 -187 -173 -145 -132 -73 -38 -69 -123 -83 -84 -63 -15 -5 -25 -25 -28 -28 -32
-0 -0 -0 -0 -0 -1 -0 -0 -0 -0 -0 -0 -0 -0 -48 -25 -27 -0 -74 -117 -84 -77 -109 -136 -254 -220 -187 -160 -121 -76 -49 -56 -125 -71 -34 -13 -15 -6 -17 -23 -17 -19 -13 -45
-0 -0 -12 -0 -0 -3 -0 -0 -0 -0 -0 -0 -0 -47 -49 -92 -88 -124 -92 -136 -101 -155 -145 -159 -198 -174 -142 -110 -80 -60 -49 -159 -96 -66 -63 -70 -30 -77 -8 -15 -5 -24 -40 -27
-62 -0 -0 -0 -12 -0 -0 -0 -0 -0 -0 -0 -0 -25 -23 -70 -124 -106 -123 -149 -113 -126 -131 -113 -123 -114 -101 -88 -111 -177 -157 -118 -104 -68 -70 -77 -71 -23 -39 -12 -26 -42 -68 -97
-83 -1 -0 -0 -0 -0 -0 -0 -0 -0 -0 -0 -0 -33 -83 -40 -50 -75 -103 -93 -150 -82 -97 -92 -98 -109 -131 -118 -128 -201 -224 -181 -116 -276 -49 -12 -7 -43 -51 -101 -68 -63 -56 -77
-92 -42 -1 -0 -29 -0 -0 -0 -0 -0 -0 -0 -1 -66 -128 -86 -39 -51 -72 -68 -101 -102 -121 -139 -89 -129 -130 -142 -156 -132 -168 -150 -147 -53 -54 -18 -3 -15 -33 -65 -30 -52 -38 -28
-96 -63 -49 -23 -0 -6 -47 -40 -0 -0 -8 -0 -2 -210 -207 -74 -37 -247 -11 -30 -37 -17 -81 -81 -106 -110 -122 -121 -121 -115 -117 -84 -239 -37 -35 -46 -11 -10 -30 -49 -34 -13 -19 -10
-119 -105 -149 -79 -58 -19 -0 -0 -0 -4 -39 -31 -107 -188 -212 -46 -54 -28 -369 -25 -23 -45 -66 -80 -74 -69 -70 -64 -61 -72 -66 -30 -76 -41 -53 -58 -68 -46 -17 -19 -12 -34 -39 -41
-393 -50 -121 -72 -77 -46 -16 -0 -41 -23 -0 -0 -48 -195 -86 -313 -100 -87 -43 -51 -15 -23 -23 -48 -65 -68 -42 -53 -58 -49 -42 -112 -88 -55 -63 -58 -72 -58 -50 -53 -51 -57 -46 -46
-107 -99 -66 -72 -38 -48 -51 -170 -95 -206 -250 -71 -63 -147 -37 -125 -153 -170 -125 -109 -62 -55 -63 -66 -48 -67 -52 -57 -45 -44 -64 -54 -38 -30 -62 -84 -109 -103 -88 -109 -86 -47 -44 -69
-306 -0 -33 -41 -28 -56 -151 -268 -35 -94 -215 -198 -191 -188 -88 -112 -87 -87 -134 -165 -161 -52 -24 -32 -84 -67 -85 -59 -58 -27 -37 -34 -35 -25 -23 -30 -66 -54 -42 -65 -81 -79 -43 -33
-176 -0 -45 -27 -40 -111 -73 -397 -454 -169 -25 -88 -37 -25 -74 -75 -90 -76 -97 -176 -157 -137 -109 -84 -123 -38 -32 -24 -66 -9 -34 -50 -34 -19 -11 -0 -7 -17 -17 -10 -59 -64 -54 -26
-102 -168 -96 -293 -32 -20 -130 -311 -431 -228 -215 -119 -7 -49 -40 -44 -75 -18 -50 -106 -87 -133 -79 -63 -118 -127 -69 -27 -13 -16 -3 -3 -18 -18 -30 -49 -16 -530 -9 -5 -11 -37 -44 -37
-100 -131 -36 -33 -77 -113 -117 -240 -221 -185 -194 -272 -155 -9 -4 -24 -207 -105 -108 -110 -99 -138 -76 -29 -67 -70 -109 -99 -46 -26 -19 -14 -3 -12 -34 -56 -39 -32 -5 -17 -0 -10 -27 -35
-183 -171 -194 -183 -54 -47 -66 -87 -115 -274 -74 -170 -216 -9 -24 -70 -121 -91 -96 -144 -173 -162 -141 -128 -40 -25 -91 -114 -126 -118 -111 -94 -78 -74 -111 -42 -154 -46 -0 -0 -2 -9 -15 -15
-149 -209 -7 -55 -204 -88 -4 -14 -9 -74 -108 -106 -114 -19 -13 -27 -9 -32 -106 -154 -141 -174 -195 -137 -70 -51 -36 -43 -88 -122 -111 -123 -153 -122 -113 -98 -340 -127 -20 -12 -4 -16 -17 -14
-120 -181 -178 -185 -192 -0 -34 -20 -1 -25 -39 -27 -44 -35 -16 -17 -44 -81 -74 -72 -144 -160 -201 -148 -149 -101 -169 -139 -64 -115 -87 -84 -51 -43 -37 -57 -127 -0 -120 -16 -13 -18 -20 -16
-109 -118 -42 -138 -93 -25 -15 -20 -18 -45 -54 -77 -75 -95 -86 -46 -24 -32 -33 -56 -121 -209 -215 -297 -295 -232 -243 -264 -272 -139 -117 -190 -157 -84 -8 -2 -6 -11 -25 -12 -8 -15 -20 -38
-173 -0 -88 -144 -15 -8 -23 -23 -16 -23 -38 -89 -93 -95 -85 -86 -59 -50 -64 -103 -120 -219 -264 -0 -0 -0 -0 -0 -0 -0 -0 -0 -0 -175 -112 -17 -14 -0 -5 -26 -44 -39 -39 -50
Wind_Speed
nan nan nan nan nan nan nan nan nan nan nan nan nan nan nan nan nan nan 35 42 41 46 36 44 40 35 29 35 36 35 36 36 37 34 29 23 21 nan 15 12 15 15 10 7
nan nan nan nan nan nan nan nan nan nan nan nan nan nan nan nan nan nan nan 35 40 42 42 37 33 29 33 38 41 40 37 35 36 33 28 29 28 21 19 13 14 18 15 11
nan nan nan nan nan nan nan nan nan nan nan nan nan nan nan nan nan nan nan 25 32 42 43 40 24 29 39 41 43 44 36 36 33 34 31 27 21 25 19 16 14 14 19 14
nan nan nan nan nan nan nan nan nan nan nan nan nan nan nan nan nan nan nan 19 31 41 43 45 27 32 40 37 40 41 38 34 32 38 36 33 28 32 19 21 20 18 18 16
nan nan nan nan nan nan nan nan nan nan nan nan nan nan nan nan nan nan nan 33 32 40 46 40 32 41 44 40 39 36 36 34 36 34 34 37 34 34 16 17 18 22 19 18
nan nan nan nan nan nan nan nan nan nan nan nan nan nan nan nan nan nan nan nan 25 31 36 35 36 45 43 35 35 34 35 31 36 36 34 35 38 33 12 13 17 17 14 15
nan nan nan nan nan nan nan nan nan nan nan nan nan nan nan nan nan nan nan nan nan nan 35 36 44 46 38 34 33 34 36 36 33 35 36 38 43 24 7 13 16 17 12 13
nan nan nan nan nan nan nan nan nan nan nan nan nan nan nan nan nan nan nan nan nan 33 42 50 48 37 38 31 34 38 38 34 37 39 41 45 22 10 7 10 13 14 13 14
nan nan nan nan nan nan nan nan nan nan nan nan nan nan nan nan nan nan nan 33 33 36 41 39 35 32 28 30 35 37 33 33 37 39 48 26 17 14 5 5 8 12 13 13
nan nan nan nan nan nan nan nan nan nan nan nan nan nan 15 22 35 39 37 30 36 38 37 37 32 27 23 29 33 32 29 30 36 47 46 11 15 8 7 2 8 14 15 17
nan nan nan nan nan nan nan nan nan nan nan nan nan 11 19 28 36 37 36 28 34 32 35 33 27 25 26 30 31 26 23 27 31 31 16 13 7 7 7 5 10 14 15 15
32 nan nan nan nan nan nan nan nan nan nan nan nan nan 18 18 21 32 37 36 32 24 27 25 23 23 27 28 25 23 20 22 26 31 8 11 8 13 13 11 10 13 15 14
30 33 nan nan nan nan nan nan nan nan nan nan nan nan 30 28 43 53 49 38 39 22 26 25 24 23 26 25 25 21 20 19 21 23 11 13 17 16 17 16 12 15 16 14
25 29 32 nan nan nan nan nan nan nan nan nan nan 36 33 43 40 60 56 25 22 27 26 23 25 24 25 21 22 22 18 19 20 20 18 16 22 22 15 16 15 18 17 18
20 35 42 nan nan nan nan nan nan nan nan nan 28 31 29 41 44 nan 40 33 18 18 18 16 17 20 20 23 23 21 17 18 21 22 21 20 20 21 17 17 19 17 16 17
nan nan nan 35 nan nan nan nan nan nan nan nan 33 35 42 40 40 57 45 30 16 18 14 17 17 19 22 22 22 20 21 21 25 24 24 23 24 25 25 24 26 19 15 16
nan nan nan 35 49 39 27 27 26 30 66 39 40 37 47 46 48 47 46 48 50 36 33 27 20 22 24 24 24 24 25 26 27 30 28 31 30 30 30 30 30 17 11 14
25 nan nan 37 46 39 31 27 42 49 62 49 50 46 43 45 49 49 40 46 41 35 27 26 28 29 31 25 27 31 32 34 34 34 32 36 33 30 29 29 25 22 12 14
nan nan nan nan nan 36 29 47 41 40 47 50 52 42 47 45 41 36 34 35 30 28 28 23 31 29 32 33 33 31 39 41 39 35 44 47 42 33 24 22 27 23 17 15
29 nan nan nan 16 26 41 50 35 38 49 nan nan 55 43 54 36 32 32 35 25 23 26 27 34 35 37 36 43 48 44 46 46 43 47 42 55 33 33 31 17 27 24 20
35 31 32 nan nan 33 50 47 nan nan 50 53 nan 45 39 31 23 29 45 31 27 29 33 34 37 40 42 40 44 48 45 48 43 48 50 47 59 nan nan nan 14 17 26 23
33 35 38 33 36 47 54 44 50 51 54 nan 63 67 36 11 10 8 10 20 30 33 34 36 37 45 45 43 47 47 46 52 52 50 52 52 nan 56 nan nan 9 14 23 24
32 36 nan nan 36 34 49 43 44 41 48 44 48 40 37 25 13 18 20 25 29 34 35 37 41 46 48 48 51 52 46 46 48 49 47 47 nan nan 15 20 11 17 23 23
30 nan nan nan nan nan nan 25 25 38 47 39 39 28 28 29 31 29 30 33 36 40 42 40 48 53 55 58 58 52 52 48 43 43 42 43 25 nan 7 15 14 18 20 23
nan nan nan nan nan 37 29 20 43 31 35 40 39 39 38 40 39 43 44 44 46 48 52 nan nan nan nan nan nan nan nan 48 48 45 41 35 26 19 22 18 22 21 20 19
nan nan nan nan nan 24 32 36 32 nan 34 nan nan 45 46 46 47 49 52 55 55 nan nan nan nan nan nan nan nan nan nan nan nan nan 42 34 28 23 29 33 36 44 29 28
Wind_Direction
nan nan nan nan nan nan nan nan nan nan nan nan nan nan nan nan nan nan 332 328 324 330 330 334 336 338 334 342 340 342 341 352 356 358 360 7 16 nan 4 10 353 334 310 291
nan nan nan nan nan nan nan nan nan nan nan nan nan nan nan nan nan nan nan 305 309 313 319 326 329 338 331 337 337 341 342 340 348 350 358 8 1 0 353 349 338 326 319 302
nan nan nan nan nan nan nan nan nan nan nan nan nan nan nan nan nan nan nan 317 309 313 314 320 340 338 328 330 333 341 342 339 342 337 341 347 342 357 340 330 328 328 317 311
nan nan nan nan nan nan nan nan nan nan nan nan nan nan nan nan nan nan nan 279 291 299 301 315 328 338 342 324 326 337 334 332 337 332 332 342 350 347 345 335 328 332 323 309
nan nan nan nan nan nan nan nan nan nan nan nan nan nan nan nan nan nan nan 242 290 291 302 314 331 337 330 324 322 322 322 319 326 327 331 337 340 342 338 334 335 321 317 313
nan nan nan nan nan nan nan nan nan nan nan nan nan nan nan nan nan nan nan nan 260 260 271 303 321 322 318 316 312 310 313 312 315 324 331 335 327 332 320 312 307 311 300 289
nan nan nan nan nan nan nan nan nan nan nan nan nan nan nan nan nan nan nan nan nan nan 285 300 311 319 314 308 303 304 304 313 318 323 328 330 318 326 319 319 318 322 318 304
nan nan nan nan nan nan nan nan nan nan nan nan nan nan nan nan nan nan nan nan nan 262 293 303 307 304 301 300 301 305 311 320 329 332 334 321 269 306 295 320 328 337 336 329
nan nan nan nan nan nan nan nan nan nan nan nan nan nan nan nan nan nan nan 253 274 291 296 302 303 295 297 298 304 314 320 329 336 333 326 292 295 272 258 333 327 345 333 321
nan nan nan nan nan nan nan nan nan nan nan nan nan nan 258 227 270 271 271 265 267 280 287 296 293 295 294 302 310 314 328 335 341 338 345 312 280 237 279 306 318 309 324 329
nan nan nan nan nan nan nan nan nan nan nan nan nan 230 258 255 262 260 261 257 267 282 298 295 292 292 299 305 312 318 325 334 345 349 12 47 13 320 300 317 303 311 313 338
204 nan nan nan nan nan nan nan nan nan nan nan nan nan 227 267 237 247 246 242 244 268 289 283 282 286 295 301 309 311 320 332 343 345 354 37 347 331 326 312 312 308 321 336
210 204 nan nan nan nan nan nan nan nan nan nan nan nan 243 246 241 229 239 233 243 270 265 273 277 284 292 302 306 312 317 337 345 355 342 341 341 335 320 316 315 311 316 333
200 203 224 nan nan nan nan nan nan nan nan nan nan 248 250 250 254 261 215 216 232 241 252 255 270 284 292 295 297 299 309 329 333 346 356 347 340 338 316 310 316 309 313 317
227 190 199 nan nan nan nan nan nan nan nan nan 269 270 264 264 253 nan 264 193 211 236 246 263 262 272 281 283 276 286 290 311 318 333 345 344 342 341 349 334 313 294 303 312
nan nan nan 203 nan nan nan nan nan nan nan nan 239 245 251 243 246 256 273 296 220 229 244 268 271 273 274 282 291 286 301 312 321 319 322 327 325 335 335 332 335 301 289 314
nan nan nan 209 202 195 222 233 222 211 198 228 233 240 258 261 257 258 268 263 252 217 221 228 244 272 284 288 291 290 295 302 302 307 314 318 317 320 323 327 330 318 283 296
238 nan nan 218 215 221 229 240 236 244 221 222 254 257 265 255 259 257 256 260 247 222 224 227 242 250 249 260 287 293 295 296 300 302 301 298 296 299 305 313 321 328 290 294
nan nan nan nan nan 208 217 229 239 249 233 215 209 208 238 236 225 227 240 228 217 229 236 239 252 252 257 258 256 273 288 297 301 287 267 259 244 253 268 292 304 304 295 299
257 nan nan nan 230 212 221 236 246 255 253 nan nan 174 208 227 208 211 213 205 215 232 237 241 256 263 263 260 268 271 275 281 284 279 278 274 256 219 236 196 264 290 291 292
227 242 254 nan nan 223 227 236 nan nan 268 279 nan 253 202 236 234 249 204 194 206 222 231 247 255 264 267 268 276 282 288 287 289 288 290 296 297 nan nan nan 182 277 287 286
221 222 234 236 232 224 222 242 247 256 270 nan 280 283 281 220 241 267 232 218 227 233 237 244 254 265 265 269 275 279 280 287 289 291 292 288 nan 295 nan nan 190 263 277 284
227 238 nan nan 252 233 222 248 248 258 277 281 276 289 294 297 288 283 267 258 249 249 248 250 260 266 267 272 275 278 281 284 289 291 291 289 nan nan 65 199 220 254 270 280
247 nan nan nan nan nan nan 209 248 254 266 269 279 285 283 274 275 264 257 258 261 261 261 263 267 269 272 274 276 279 279 279 284 285 292 302 321 nan 184 179 238 264 277 284
nan nan nan nan nan 244 225 210 241 232 238 249 254 261 270 269 269 270 269 269 268 270 273 nan nan nan nan nan nan nan nan 275 278 280 284 300 316 314 308 242 227 248 258 279
nan nan nan nan nan 273 274 293 227 nan 235 nan nan 264 261 265 267 266 264 267 269 nan nan nan nan nan nan nan nan nan nan nan nan nan 280 279 281 272 278 287 271 257 225 249